Language: 


Des rapports , des résumés tant et plus, au choix de chacun....


Données Historiques de Météogheer
Journalier Rapport pour Décembre 24, 2017 Unitée:  Impériale    Métrique   Les deux
Suivant Jour »
Journalier Hebdomadaire Mensuel Annuel Sur mesure
  Max: Min: Moyenne:
Température: 51.3 °F 47.8 °F 49.6 °F
Point de rosée: 51.8 °F 48.2 °F 49.5 °F
Humidité: 98% 95% 97%
Vent: 19.5mph 4.3mph 9.9mph
Rafales: 22.4mph - -
Vent- - WSW
Pression: 30.4 in 30.1 in -
Pluie: 0 in    
Historical Graphs
 
 
Données tabulaires pour Décembre 24, 2017
Heure Température Point de rosée Pression Vent Vent Rafales Humidité Pluie Taux (Horaire) Conditions
00:00 50.5 °F 50 °F 30.4 in West 13.2 mph 17.9 mph 98% 0 in
00:03 50.7 °F 50 °F 30.4 in WSW 8.1 mph 17.9 mph 98% 0 in
00:08 50.7 °F 50 °F 30.4 in WSW 12.5 mph 17.9 mph 98% 0 in
00:10 50.7 °F 50 °F 30.4 in WSW 7.6 mph 17.2 mph 98% 0 in
00:15 50.7 °F 50 °F 30.4 in WSW 12.1 mph 17.2 mph 98% 0 in
00:18 50.5 °F 50 °F 30.4 in WSW 10.1 mph 15.4 mph 98% 0 in
00:23 50.5 °F 50 °F 30.4 in WSW 7.8 mph 13.2 mph 98% 0 in
00:24 50.5 °F 50 °F 30.4 in West 14.8 mph 14.8 mph 98% 0 in
00:29 50.5 °F 50 °F 30.4 in WSW 8.7 mph 14.8 mph 98% 0 in
00:30 50.5 °F 50 °F 30.4 in WSW 14.5 mph 14.8 mph 98% 0 in
00:31 50.5 °F 50 °F 30.4 in West 10.3 mph 14.8 mph 98% 0 in
00:36 50.5 °F 50 °F 30.4 in WSW 10.5 mph 17 mph 98% 0 in
00:37 50.5 °F 50 °F 30.4 in WSW 12.8 mph 17 mph 98% 0 in
00:42 50.5 °F 50 °F 30.4 in WSW 10.3 mph 17 mph 98% 0 in
00:43 50.5 °F 50 °F 30.4 in WSW 7.6 mph 15.9 mph 98% 0 in
00:44 50.5 °F 50 °F 30.4 in WSW 7.4 mph 15.9 mph 98% 0 in
00:49 50.5 °F 50 °F 30.4 in WSW 11 mph 15.9 mph 98% 0 in
00:54 50.5 °F 50 °F 30.4 in West 7.4 mph 15.7 mph 98% 0 in
00:59 50.5 °F 50 °F 30.4 in WSW 7.6 mph 15.7 mph 98% 0 in
01:04 50.4 °F 50 °F 30.4 in WSW 10.1 mph 12.5 mph 98% 0 in
01:08 50.4 °F 50 °F 30.4 in WSW 10.3 mph 13 mph 98% 0 in
01:10 50.4 °F 50 °F 30.4 in WSW 10.3 mph 13 mph 98% 0 in
01:15 50.4 °F 50 °F 30.4 in West 8.7 mph 13 mph 98% 0 in
01:20 50.4 °F 50 °F 30.4 in WSW 12.8 mph 14.3 mph 98% 0 in
01:21 50.4 °F 50 °F 30.4 in WSW 12.5 mph 14.3 mph 98% 0 in
01:26 50.2 °F 50 °F 30.4 in West 10.7 mph 17.2 mph 98% 0 in
01:29 50.4 °F 50 °F 30.4 in WSW 15.2 mph 17.2 mph 98% 0 in
01:34 50.4 °F 50 °F 30.4 in West 8.7 mph 17.2 mph 98% 0 in
01:39 50.4 °F 50 °F 30.4 in West 8.7 mph 15.2 mph 98% 0 in
01:42 50.4 °F 50 °F 30.4 in West 8.1 mph 15.4 mph 98% 0 in
01:47 50.4 °F 50 °F 30.4 in West 6.3 mph 15.4 mph 98% 0 in
01:49 50.4 °F 50 °F 30.4 in West 8.1 mph 15.4 mph 98% 0 in
01:50 50.4 °F 50 °F 30.4 in WSW 7.4 mph 12.5 mph 98% 0 in
01:55 50.4 °F 50 °F 30.4 in WSW 7.6 mph 10.5 mph 98% 0 in
02:00 50.4 °F 50 °F 30.4 in WSW 7.8 mph 10.1 mph 98% 0 in
02:03 50.4 °F 50 °F 30.4 in WSW 4.3 mph 9.6 mph 98% 0 in
02:06 50.2 °F 50 °F 30.4 in WSW 7.8 mph 12.5 mph 98% 0 in
02:11 50.2 °F 50 °F 30.4 in WSW 11 mph 13 mph 98% 0 in
02:16 50.2 °F 50 °F 30.4 in West 8.1 mph 13 mph 98% 0 in
02:18 50.2 °F 50 °F 30.4 in WSW 10.1 mph 13 mph 98% 0 in
02:23 50.2 °F 50 °F 30.4 in West 7.8 mph 13.4 mph 98% 0 in
02:24 50.2 °F 50 °F 30.4 in WSW 12.3 mph 13.4 mph 98% 0 in
02:29 50.2 °F 50 °F 30.4 in WSW 7.8 mph 13.4 mph 98% 0 in
02:31 50.2 °F 50 °F 30.4 in West 7.4 mph 12.3 mph 98% 0 in
02:33 50.2 °F 50 °F 30.4 in SW 8.1 mph 12.3 mph 98% 0 in
02:38 50.2 °F 50 °F 30.4 in WSW 7.6 mph 12.1 mph 98% 0 in
02:40 50.2 °F 50 °F 30.4 in WSW 7.6 mph 12.8 mph 98% 0 in
02:44 50.2 °F 50 °F 30.4 in WSW 6.3 mph 12.8 mph 98% 0 in
02:46 50.2 °F 50 °F 30.4 in WSW 7.4 mph 12.8 mph 98% 0 in
02:52 50.2 °F 50 °F 30.4 in WSW 5.8 mph 10.3 mph 98% 0 in
02:55 50.2 °F 50 °F 30.4 in WSW 5.4 mph 9.8 mph 98% 0 in
03:00 50.2 °F 50 °F 30.4 in WSW 7.4 mph 9.6 mph 98% 0 in
03:05 50.2 °F 50 °F 30.4 in WSW 8.5 mph 9.8 mph 98% 0 in
03:08 50.2 °F 50 °F 30.4 in WSW 7.8 mph 13 mph 98% 0 in
03:10 50.2 °F 50 °F 30.4 in WSW 7.8 mph 13 mph 98% 0 in
03:16 50.2 °F 50 °F 30.4 in WSW 6.3 mph 10.3 mph 98% 0 in
03:17 50.2 °F 50 °F 30.4 in WSW 6.5 mph 10.3 mph 98% 0 in
03:22 50.2 °F 50 °F 30.4 in WSW 6.5 mph 10.1 mph 98% 0 in
03:23 50.2 °F 50 °F 30.4 in WSW 6.3 mph 10.1 mph 98% 0 in
03:28 50 °F 50 °F 30.4 in WSW 8.7 mph 8.7 mph 98% 0 in
03:31 50 °F 50 °F 30.4 in WSW 10.7 mph 10.7 mph 98% 0 in
03:32 50 °F 50 °F 30.4 in WSW 8.1 mph 10.7 mph 98% 0 in
03:37 50 °F 50 °F 30.4 in WSW 6.5 mph 11.9 mph 98% 0 in
03:39 50 °F 50 °F 30.4 in WSW 5.8 mph 11.9 mph 98% 0 in
03:40 50 °F 50 °F 30.4 in WSW 5.6 mph 11.9 mph 98% 0 in
03:45 50 °F 50 °F 30.4 in SW 10.5 mph 10.5 mph 98% 0 in
03:49 50 °F 50 °F 30.4 in WSW 4.3 mph 12.3 mph 98% 0 in
03:52 50 °F 50 °F 30.4 in WSW 10.3 mph 12.3 mph 98% 0 in
03:57 50 °F 50 °F 30.4 in WSW 11 mph 14.8 mph 98% 0 in
03:59 50 °F 50 °F 30.4 in WSW 10.1 mph 14.8 mph 98% 0 in
04:04 50.2 °F 50 °F 30.4 in WSW 8.5 mph 14.3 mph 98% 0 in
04:08 50 °F 50 °F 30.4 in WSW 12.3 mph 12.5 mph 98% 0 in
04:13 50 °F 50 °F 30.4 in WSW 11 mph 12.5 mph 98% 0 in
04:17 50 °F 50 °F 30.4 in WSW 12.5 mph 12.5 mph 98% 0 in
04:22 50 °F 50 °F 30.4 in WSW 11.9 mph 15.2 mph 98% 0 in
04:23 50 °F 50 °F 30.4 in West 10.1 mph 15.2 mph 98% 0 in
04:27 50 °F 50 °F 30.4 in West 12.1 mph 16.1 mph 98% 0 in
04:29 50 °F 50 °F 30.4 in West 10.7 mph 16.1 mph 98% 0 in
04:34 50.2 °F 50 °F 30.4 in West 10.7 mph 16.1 mph 98% 0 in
04:39 50.2 °F 50 °F 30.4 in WSW 8.1 mph 15.2 mph 98% 0 in
04:43 50.2 °F 50 °F 30.4 in WSW 8.7 mph 14.1 mph 98% 0 in
04:46 50.2 °F 50 °F 30.4 in West 10.7 mph 14.1 mph 98% 0 in
04:51 50.2 °F 50 °F 30.4 in WSW 7.4 mph 13 mph 98% 0 in
04:53 50.2 °F 50 °F 30.4 in West 10.5 mph 13 mph 98% 0 in
04:58 50.2 °F 50 °F 30.4 in WSW 7.6 mph 17.7 mph 98% 0 in
04:59 50.2 °F 50 °F 30.4 in WSW 7.6 mph 17.7 mph 98% 0 in
05:04 50.2 °F 50 °F 30.4 in WSW 10.3 mph 17.7 mph 98% 0 in
05:09 50 °F 50 °F 30.4 in WSW 10.3 mph 16.1 mph 98% 0 in
05:12 50.2 °F 50 °F 30.4 in West 14.8 mph 16.1 mph 98% 0 in
05:17 50.2 °F 50 °F 30.4 in WSW 10.1 mph 16.1 mph 98% 0 in
05:18 50.2 °F 50 °F 30.4 in West 8.1 mph 14.8 mph 98% 0 in
05:23 50.2 °F 50 °F 30.4 in West 6.3 mph 15.7 mph 98% 0 in
05:25 50.2 °F 50 °F 30.4 in West 13.9 mph 15.7 mph 98% 0 in
05:30 50.2 °F 50 °F 30.3 in WSW 11.2 mph 15.4 mph 98% 0 in
05:34 50.2 °F 50 °F 30.3 in WSW 8.5 mph 15.4 mph 98% 0 in
05:35 50.2 °F 50 °F 30.3 in WSW 6.3 mph 15.4 mph 98% 0 in
05:40 50.2 °F 50 °F 30.3 in WSW 12.5 mph 15.7 mph 98% 0 in
05:43 50.2 °F 50 °F 30.3 in WSW 10.3 mph 15.7 mph 98% 0 in
05:48 50.2 °F 50 °F 30.3 in WSW 10.1 mph 15.7 mph 98% 0 in
05:50 50.2 °F 50 °F 30.3 in WSW 8.5 mph 15.7 mph 98% 0 in
05:54 50 °F 50 °F 30.3 in WSW 8.5 mph 13 mph 98% 0 in
05:56 50 °F 50 °F 30.3 in West 15.2 mph 15.2 mph 98% 0 in
06:01 50.2 °F 50 °F 30.3 in WSW 10.7 mph 17 mph 98% 0 in
06:06 50.2 °F 50 °F 30.3 in West 12.8 mph 22.4 mph 98% 0 in
06:07 50.2 °F 50 °F 30.3 in WSW 8.1 mph 22.4 mph 98% 0 in
06:12 50.2 °F 50 °F 30.3 in WSW 12.5 mph 22.4 mph 97% 0 in
06:13 50.2 °F 50 °F 30.3 in West 8.7 mph 19.5 mph 97% 0 in
06:18 50.2 °F 50 °F 30.3 in West 8.5 mph 15.7 mph 97% 0 in
06:20 50.2 °F 50 °F 30.3 in WSW 7.8 mph 15.7 mph 97% 0 in
06:23 50.2 °F 50 °F 30.3 in WSW 17 mph 19.9 mph 97% 0 in
06:27 50.2 °F 50 °F 30.3 in WSW 10.7 mph 19.9 mph 97% 0 in
06:32 50.2 °F 50 °F 30.3 in SW 11 mph 19.9 mph 97% 0 in
06:37 50.2 °F 50 °F 30.3 in WSW 14.5 mph 21.9 mph 97% 0 in
06:41 50.2 °F 50 °F 30.3 in WSW 8.1 mph 21.9 mph 97% 0 in
06:42 50.2 °F 50 °F 30.3 in West 11 mph 21.9 mph 97% 0 in
06:47 50.2 °F 50 °F 30.3 in WSW 13.2 mph 17.7 mph 97% 0 in
06:48 50.2 °F 50 °F 30.3 in WSW 19.5 mph 19.5 mph 97% 0 in
06:52 50.2 °F 50 °F 30.3 in WSW 16.6 mph 20.1 mph 97% 0 in
06:57 50.2 °F 50 °F 30.3 in West 17.9 mph 20.1 mph 98% 0 in
07:00 50.2 °F 50 °F 30.3 in West 17.2 mph 19.5 mph 98% 0 in
07:05 50.2 °F 50 °F 30.3 in West 11 mph 18.6 mph 98% 0 in
07:06 50.2 °F 50 °F 30.3 in West 11 mph 18.6 mph 98% 0 in
07:11 50.2 °F 50 °F 30.3 in WSW 14.1 mph 19.7 mph 98% 0 in
07:16 50.2 °F 50 °F 30.3 in West 13 mph 20.6 mph 98% 0 in
07:17 50.4 °F 50 °F 30.3 in West 15.9 mph 20.6 mph 97% 0 in
07:20 50.4 °F 50 °F 30.3 in WSW 6.3 mph 20.6 mph 97% 0 in
07:25 50.4 °F 50 °F 30.3 in WSW 10.7 mph 20.6 mph 97% 0 in
07:30 50.4 °F 50 °F 30.3 in WSW 10.7 mph 17 mph 97% 0 in
07:31 50.4 °F 50 °F 30.3 in West 11 mph 17 mph 97% 0 in
07:35 50.4 °F 50 °F 30.3 in WSW 13.4 mph 17 mph 97% 0 in
07:37 50.4 °F 50 °F 30.3 in WSW 12.5 mph 17 mph 97% 0 in
07:40 50.4 °F 50 °F 30.3 in West 11 mph 14.5 mph 97% 0 in
07:42 50.4 °F 50 °F 30.3 in West 10.7 mph 14.5 mph 97% 0 in
07:47 50.4 °F 50 °F 30.3 in West 10.1 mph 15.2 mph 97% 0 in
07:48 50.4 °F 50 °F 30.3 in WSW 7.6 mph 15.2 mph 97% 0 in
07:53 50.5 °F 50 °F 30.3 in WSW 10.5 mph 15.2 mph 97% 0 in
07:58 50.5 °F 50 °F 30.3 in WSW 12.8 mph 14.5 mph 97% 0 in
07:59 50.5 °F 50 °F 30.3 in West 8.7 mph 14.5 mph 97% 0 in
08:04 50.5 °F 50 °F 30.3 in SW 13 mph 19.9 mph 97% 0 in
08:05 50.5 °F 50 °F 30.3 in West 12.1 mph 19.9 mph 97% 0 in
08:10 50.5 °F 50 °F 30.3 in WNW 8.5 mph 19.9 mph 97% 0 in
08:12 50.5 °F 50 °F 30.3 in WSW 13 mph 13.2 mph 97% 0 in
08:15 50.5 °F 50 °F 30.3 in WSW 9.4 mph 15.2 mph 96% 0 in
08:18 50.5 °F 50 °F 30.3 in West 12.8 mph 15.2 mph 96% 0 in
08:22 50.5 °F 50 °F 30.3 in West 7.4 mph 15.2 mph 96% 0 in
08:24 50.5 °F 50 °F 30.3 in West 12.3 mph 14.8 mph 96% 0 in
08:29 50.5 °F 50 °F 30.3 in WSW 10.7 mph 13.9 mph 96% 0 in
08:30 50.5 °F 50 °F 30.3 in WSW 12.8 mph 13.9 mph 96% 0 in
08:35 50.5 °F 50 °F 30.3 in WSW 10.5 mph 16.3 mph 97% 0 in
08:37 50.5 °F 50 °F 30.3 in WSW 14.5 mph 16.3 mph 97% 0 in
08:41 50.5 °F 50 °F 30.3 in WSW 13 mph 15.2 mph 97% 0 in
08:43 50.5 °F 50 °F 30.3 in WSW 10.1 mph 15.2 mph 97% 0 in
08:45 50.5 °F 50 °F 30.3 in WSW 9.8 mph 15.2 mph 97% 0 in
08:50 50.4 °F 50 °F 30.3 in West 13 mph 13.9 mph 97% 0 in
08:51 50.4 °F 50 °F 30.3 in WSW 11.2 mph 13.4 mph 97% 0 in
08:52 50.4 °F 50 °F 30.3 in West 8.9 mph 13.2 mph 97% 0 in
08:57 50.4 °F 50 °F 30.3 in WSW 17.2 mph 17.2 mph 97% 0 in
08:59 50.4 °F 50 °F 30.3 in WSW 10.3 mph 17.2 mph 97% 0 in
09:04 50.4 °F 50 °F 30.3 in West 8.5 mph 17.2 mph 97% 0 in
09:05 50.4 °F 50 °F 30.3 in WSW 10.5 mph 17.2 mph 97% 0 in
09:09 50.5 °F 50 °F 30.3 in WSW 9.8 mph 15.4 mph 97% 0 in
09:12 50.5 °F 50 °F 30.3 in WSW 13.6 mph 16.3 mph 97% 0 in
09:17 50.5 °F 50 °F 30.3 in West 15.4 mph 17 mph 97% 0 in
09:18 50.5 °F 50 °F 30.3 in WSW 10.3 mph 17 mph 97% 0 in
09:22 50.5 °F 50 °F 30.3 in WSW 10.1 mph 17 mph 97% 0 in
09:23 50.5 °F 50 °F 30.3 in WSW 14.1 mph 16.3 mph 97% 0 in
09:28 50.7 °F 50 °F 30.3 in WSW 11.9 mph 16.3 mph 97% 0 in
09:30 50.7 °F 50 °F 30.3 in WSW 8.9 mph 16.3 mph 97% 0 in
09:35 50.7 °F 50 °F 30.3 in West 7.8 mph 13.2 mph 97% 0 in
09:37 50.7 °F 50 °F 30.3 in WSW 8.9 mph 12.5 mph 97% 0 in
09:42 50.5 °F 50 °F 30.3 in West 8.5 mph 12.5 mph 97% 0 in
09:44 50.5 °F 50 °F 30.3 in WSW 12.5 mph 13 mph 97% 0 in
09:47 50.5 °F 50 °F 30.3 in WSW 8.5 mph 13 mph 98% 0 in
09:52 50.5 °F 50 °F 30.3 in WSW 10.1 mph 15.7 mph 98% 0 in
09:56 50.5 °F 50 °F 30.3 in WSW 8.7 mph 15.7 mph 98% 0 in
10:01 50.5 °F 50 °F 30.3 in WSW 9.8 mph 14.5 mph 98% 0 in
10:06 50.5 °F 50 °F 30.3 in WSW 12.5 mph 14.8 mph 98% 0 in
10:07 50.5 °F 50 °F 30.3 in WSW 9.8 mph 14.8 mph 98% 0 in
10:12 50.5 °F 50 °F 30.3 in WSW 7.4 mph 14.8 mph 98% 0 in
10:13 50.5 °F 50 °F 30.3 in WSW 8.5 mph 14.8 mph 98% 0 in
10:18 50.5 °F 50 °F 30.3 in WSW 12.3 mph 13.4 mph 98% 0 in
10:20 50.5 °F 50 °F 30.3 in SW 10.5 mph 13.4 mph 98% 0 in
10:21 50.5 °F 50 °F 30.3 in WSW 6.5 mph 13.4 mph 98% 0 in
10:26 50.5 °F 50 °F 30.3 in WSW 10.7 mph 13.4 mph 98% 0 in
10:31 50.5 °F 50 °F 30.3 in WSW 7.4 mph 14.3 mph 98% 0 in
10:33 50.5 °F 50 °F 30.3 in WSW 12.8 mph 14.8 mph 98% 0 in
10:34 50.5 °F 50 °F 30.3 in SW 7.8 mph 14.8 mph 98% 0 in
10:39 50.5 °F 50 °F 30.3 in WSW 10.7 mph 14.8 mph 98% 0 in
10:41 50.5 °F 50 °F 30.3 in WSW 10.1 mph 14.8 mph 98% 0 in
10:46 50.5 °F 50 °F 30.3 in WSW 13.2 mph 16.6 mph 98% 0 in
10:47 50.5 °F 50 °F 30.3 in SW 7.8 mph 16.6 mph 98% 0 in
10:49 50.5 °F 50 °F 30.3 in WSW 13 mph 16.6 mph 98% 0 in
10:54 50.5 °F 50 °F 30.3 in WSW 13.2 mph 15.2 mph 98% 0 in
10:55 50.5 °F 50 °F 30.3 in WSW 12.8 mph 15.2 mph 98% 0 in
11:00 50.5 °F 50 °F 30.3 in WSW 10.7 mph 17 mph 98% 0 in
11:05 50.5 °F 50 °F 30.3 in WSW 13 mph 17 mph 98% 0 in
11:10 50.5 °F 50 °F 30.3 in WSW 9.6 mph 15.4 mph 98% 0 in
11:12 50.5 °F 50 °F 30.3 in WSW 13 mph 15.4 mph 98% 0 in
11:14 50.5 °F 50 °F 30.3 in WSW 11 mph 15.2 mph 98% 0 in
11:19 50.7 °F 50 °F 30.3 in WSW 10.7 mph 13.2 mph 98% 0 in
11:22 50.7 °F 50 °F 30.3 in WSW 10.3 mph 13.2 mph 98% 0 in
11:23 50.7 °F 50 °F 30.3 in WSW 10.3 mph 13.2 mph 98% 0 in
11:28 50.7 °F 50 °F 30.3 in WSW 10.7 mph 17.4 mph 98% 0 in
11:33 50.9 °F 51.8 °F 30.3 in WSW 12.8 mph 17.4 mph 98% 0 in
11:38 50.9 °F 51.8 °F 30.3 in West 9.6 mph 14.5 mph 98% 0 in
11:43 50.9 °F 51.8 °F 30.3 in WSW 8.7 mph 14.5 mph 98% 0 in
11:48 51.1 °F 51.8 °F 30.3 in WSW 8.7 mph 16.6 mph 98% 0 in
11:51 50.9 °F 51.8 °F 30.3 in WSW 11.9 mph 16.6 mph 98% 0 in
11:56 51.1 °F 51.8 °F 30.3 in WSW 13 mph 14.8 mph 98% 0 in
11:57 51.1 °F 51.8 °F 30.3 in WSW 10.5 mph 14.8 mph 98% 0 in
12:02 51.1 °F 51.8 °F 30.3 in SW 10.1 mph 15.2 mph 98% 0 in
12:03 51.1 °F 51.8 °F 30.3 in WSW 10.1 mph 15.2 mph 98% 0 in
12:08 51.1 °F 51.8 °F 30.3 in WSW 11.2 mph 17.2 mph 98% 0 in
12:09 51.1 °F 51.8 °F 30.3 in WSW 10.1 mph 17.2 mph 98% 0 in
12:14 51.1 °F 51.8 °F 30.3 in WSW 8.1 mph 17.9 mph 98% 0 in
12:19 51.1 °F 51.8 °F 30.3 in West 8.7 mph 17.9 mph 98% 0 in
12:21 51.1 °F 51.8 °F 30.3 in WSW 10.3 mph 13.6 mph 98% 0 in
12:25 51.3 °F 51.8 °F 30.3 in WSW 7.8 mph 13.2 mph 98% 0 in
12:30 51.3 °F 51.8 °F 30.3 in WSW 10.1 mph 13.9 mph 98% 0 in
12:35 51.3 °F 51.8 °F 30.3 in WSW 13.6 mph 15.2 mph 98% 0 in
12:40 51.3 °F 51.8 °F 30.3 in WSW 10.7 mph 17.7 mph 98% 0 in
12:45 51.3 °F 51.8 °F 30.3 in WSW 8.7 mph 17.7 mph 98% 0 in
12:50 51.3 °F 51.8 °F 30.3 in WSW 10.7 mph 15.2 mph 98% 0 in
12:55 51.3 °F 50 °F 30.3 in WSW 9.8 mph 15.7 mph 97% 0 in
12:56 51.3 °F 50 °F 30.3 in WSW 13.6 mph 15.7 mph 97% 0 in
13:00 51.3 °F 50 °F 30.3 in WSW 13.2 mph 16.6 mph 97% 0 in
13:02 51.3 °F 50 °F 30.3 in WSW 11.4 mph 16.6 mph 97% 0 in
13:07 51.1 °F 50 °F 30.3 in WSW 13 mph 15.9 mph 97% 0 in
13:09 51.1 °F 50 °F 30.3 in WSW 15.4 mph 15.9 mph 97% 0 in
13:14 51.1 °F 50 °F 30.3 in WSW 10.5 mph 17.7 mph 96% 0 in
13:15 51.1 °F 50 °F 30.3 in WSW 9.8 mph 17.7 mph 96% 0 in
13:20 51.1 °F 50 °F 30.3 in WSW 13 mph 17.7 mph 96% 0 in
13:22 51.1 °F 50 °F 30.3 in WSW 12.8 mph 17 mph 96% 0 in
13:23 51.1 °F 50 °F 30.3 in WSW 11.9 mph 17 mph 96% 0 in
13:28 50.9 °F 50 °F 30.3 in WSW 11 mph 19.7 mph 96% 0 in
13:33 51.1 °F 50 °F 30.3 in WSW 7.8 mph 19.7 mph 96% 0 in
13:34 51.1 °F 50 °F 30.3 in WSW 12.8 mph 19.7 mph 96% 0 in
13:39 51.1 °F 50 °F 30.3 in SW 7.6 mph 13.2 mph 96% 0 in
13:40 51.1 °F 50 °F 30.3 in WSW 15.7 mph 15.7 mph 96% 0 in
13:45 50.9 °F 50 °F 30.3 in WSW 11.2 mph 15.7 mph 96% 0 in
13:50 50.9 °F 50 °F 30.3 in West 12.5 mph 15.7 mph 96% 0 in
13:53 50.9 °F 50 °F 30.3 in WSW 13.4 mph 15.4 mph 96% 0 in
13:58 50.7 °F 50 °F 30.2 in WSW 14.5 mph 17.9 mph 95% 0 in
14:01 50.7 °F 50 °F 30.2 in WSW 11.4 mph 17.9 mph 95% 0 in
14:03 50.7 °F 50 °F 30.2 in WSW 10.3 mph 17.9 mph 96% 0 in
14:07 50.7 °F 50 °F 30.2 in WSW 12.1 mph 17.7 mph 95% 0 in
14:10 50.9 °F 50 °F 30.2 in WSW 10.1 mph 17.2 mph 95% 0 in
14:12 50.9 °F 50 °F 30.2 in WSW 10.5 mph 17.2 mph 95% 0 in
14:17 50.9 °F 50 °F 30.2 in WSW 10.1 mph 16.8 mph 95% 0 in
14:20 50.9 °F 50 °F 30.2 in WSW 10.1 mph 16.8 mph 95% 0 in
14:25 50.9 °F 50 °F 30.2 in WSW 11.9 mph 13.9 mph 95% 0 in
14:26 50.9 °F 50 °F 30.2 in SW 9.8 mph 13.9 mph 95% 0 in
14:29 50.9 °F 50 °F 30.2 in WSW 8.5 mph 13.9 mph 95% 0 in
14:33 50.7 °F 50 °F 30.2 in WSW 11 mph 14.5 mph 95% 0 in
14:38 50.7 °F 50 °F 30.2 in West 10.3 mph 17 mph 96% 0 in
14:43 50.5 °F 50 °F 30.3 in West 13.2 mph 17 mph 95% 0 in
14:46 50.5 °F 50 °F 30.3 in WSW 8.1 mph 15.4 mph 95% 0 in
14:51 50.5 °F 50 °F 30.3 in WSW 9.8 mph 15.4 mph 95% 0 in
14:53 50.5 °F 50 °F 30.3 in SW 8.9 mph 15.4 mph 95% 0 in
14:56 50.5 °F 50 °F 30.3 in SW 9.8 mph 12.8 mph 95% 0 in
15:01 50.5 °F 50 °F 30.3 in SW 8.5 mph 13.9 mph 95% 0 in
15:06 50.5 °F 50 °F 30.3 in SW 13.2 mph 13.9 mph 95% 0 in
15:11 50.4 °F 50 °F 30.2 in WSW 7.6 mph 13.9 mph 95% 0 in
15:13 50.4 °F 50 °F 30.2 in WSW 9.6 mph 13.2 mph 95% 0 in
15:18 50.2 °F 48.2 °F 30.2 in WSW 7.4 mph 13.2 mph 95% 0 in
15:20 50.2 °F 48.2 °F 30.2 in WSW 10.5 mph 13 mph 95% 0 in
15:25 50.2 °F 48.2 °F 30.2 in WSW 8.7 mph 13 mph 95% 0 in
15:28 50 °F 48.2 °F 30.2 in SW 6.3 mph 13 mph 95% 0 in
15:30 50 °F 48.2 °F 30.2 in WSW 12.3 mph 13 mph 95% 0 in
15:35 50 °F 48.2 °F 30.2 in WSW 15.9 mph 16.6 mph 95% 0 in
15:37 49.8 °F 48.2 °F 30.2 in SW 9.4 mph 17.2 mph 95% 0 in
15:42 49.8 °F 48.2 °F 30.3 in WSW 14.1 mph 17.2 mph 95% 0 in
15:47 49.6 °F 48.2 °F 30.3 in WSW 8.5 mph 15.9 mph 95% 0 in
15:50 49.6 °F 48.2 °F 30.3 in WSW 8.7 mph 15.9 mph 96% 0 in
15:52 49.6 °F 48.2 °F 30.3 in WSW 10.3 mph 13.2 mph 96% 0 in
15:57 49.5 °F 48.2 °F 30.3 in WSW 13 mph 17.2 mph 96% 0 in
16:00 49.5 °F 48.2 °F 30.3 in SW 13 mph 17.2 mph 95% 0 in
16:05 49.3 °F 48.2 °F 30.3 in West 15.4 mph 19.9 mph 95% 0 in
16:10 49.1 °F 48.2 °F 30.3 in WSW 14.5 mph 19.9 mph 95% 0 in
16:11 49.1 °F 48.2 °F 30.3 in WSW 12.8 mph 19.9 mph 95% 0 in
16:16 49.1 °F 48.2 °F 30.3 in WSW 8.7 mph 15.2 mph 95% 0 in
16:19 48.9 °F 48.2 °F 30.3 in WSW 10.7 mph 15.2 mph 95% 0 in
16:21 48.9 °F 48.2 °F 30.3 in WSW 10.1 mph 13.2 mph 95% 0 in
16:26 48.9 °F 48.2 °F 30.3 in WSW 10.1 mph 13.2 mph 95% 0 in
16:27 48.9 °F 48.2 °F 30.3 in WSW 6 mph 13.2 mph 95% 0 in
16:29 48.9 °F 48.2 °F 30.3 in WSW 10.5 mph 13.2 mph 95% 0 in
16:34 48.7 °F 48.2 °F 30.3 in WSW 12.8 mph 15.2 mph 96% 0 in
16:36 48.7 °F 48.2 °F 30.3 in WSW 10.1 mph 15.2 mph 96% 0 in
16:37 48.7 °F 48.2 °F 30.3 in WSW 8.5 mph 15.2 mph 96% 0 in
16:42 48.7 °F 48.2 °F 30.3 in WSW 9.8 mph 15.2 mph 96% 0 in
16:46 48.7 °F 48.2 °F 30.3 in West 8.5 mph 13.2 mph 96% 0 in
16:51 48.7 °F 48.2 °F 30.3 in West 11.9 mph 13.2 mph 96% 0 in
16:53 48.6 °F 48.2 °F 30.3 in SSW 12.3 mph 15.7 mph 96% 0 in
16:59 48.6 °F 48.2 °F 30.2 in WSW 8.1 mph 15.7 mph 96% 0 in
17:00 48.6 °F 48.2 °F 30.2 in WSW 10.3 mph 15.7 mph 96% 0 in
17:05 48.6 °F 48.2 °F 30.2 in WSW 10.7 mph 13 mph 96% 0 in
17:06 48.6 °F 48.2 °F 30.2 in SW 13.4 mph 13.4 mph 96% 0 in
17:10 48.6 °F 48.2 °F 30.2 in WSW 11.4 mph 13.4 mph 96% 0 in
17:12 48.6 °F 48.2 °F 30.2 in WSW 12.1 mph 13.9 mph 96% 0 in
17:17 48.6 °F 48.2 °F 30.2 in West 11 mph 14.8 mph 95% 0 in
17:22 48.6 °F 48.2 °F 30.2 in WSW 9.6 mph 17.7 mph 95% 0 in
17:27 48.6 °F 48.2 °F 30.2 in SW 14.8 mph 17.7 mph 95% 0 in
17:29 48.6 °F 48.2 °F 30.2 in WSW 9.8 mph 14.8 mph 95% 0 in
17:34 48.4 °F 48.2 °F 30.2 in SSW 12.5 mph 16.8 mph 95% 0 in
17:35 48.4 °F 48.2 °F 30.2 in WSW 10.1 mph 16.8 mph 95% 0 in
17:40 48.2 °F 48.2 °F 30.2 in WSW 12.8 mph 16.8 mph 96% 0 in
17:45 48 °F 48.2 °F 30.2 in SW 10.3 mph 14.8 mph 96% 0 in
17:48 48 °F 48.2 °F 30.2 in WSW 12.5 mph 13.6 mph 97% 0 in
17:52 48 °F 48.2 °F 30.2 in SSW 8.1 mph 13.6 mph 97% 0 in
17:57 48 °F 48.2 °F 30.2 in SSW 10.5 mph 13.6 mph 97% 0 in
18:02 48 °F 48.2 °F 30.2 in WSW 9.6 mph 13.6 mph 97% 0 in
18:05 48 °F 48.2 °F 30.2 in West 7.4 mph 13.6 mph 97% 0 in
18:10 48 °F 48.2 °F 30.2 in SW 10.5 mph 16.1 mph 97% 0 in
18:11 48 °F 48.2 °F 30.2 in SW 7.8 mph 16.1 mph 97% 0 in
18:16 48 °F 48.2 °F 30.2 in SW 7.8 mph 16.1 mph 97% 0 in
18:18 48 °F 48.2 °F 30.2 in SW 13 mph 16.1 mph 97% 0 in
18:23 48 °F 48.2 °F 30.2 in WSW 10.3 mph 13.2 mph 97% 0 in
18:24 48 °F 48.2 °F 30.2 in SW 14.1 mph 14.1 mph 97% 0 in
18:29 48 °F 48.2 °F 30.2 in SW 7.4 mph 14.1 mph 97% 0 in
18:34 48 °F 48.2 °F 30.2 in WSW 10.5 mph 14.1 mph 97% 0 in
18:37 48 °F 48.2 °F 30.2 in WSW 11.4 mph 15.2 mph 97% 0 in
18:42 47.8 °F 48.2 °F 30.2 in SSW 10.3 mph 15.2 mph 98% 0 in
18:43 47.8 °F 48.2 °F 30.2 in WSW 11.4 mph 15.2 mph 98% 0 in
18:44 47.8 °F 48.2 °F 30.2 in WSW 13 mph 15.2 mph 98% 0 in
18:49 47.8 °F 48.2 °F 30.2 in WSW 7.8 mph 13.2 mph 98% 0 in
18:50 47.8 °F 48.2 °F 30.2 in SW 13.2 mph 13.2 mph 98% 0 in
18:55 47.8 °F 48.2 °F 30.2 in WSW 6.5 mph 13.2 mph 98% 0 in
19:00 47.8 °F 48.2 °F 30.2 in SW 7.6 mph 12.5 mph 98% 0 in
19:03 47.8 °F 48.2 °F 30.2 in SW 5.8 mph 10.7 mph 98% 0 in
19:08 47.8 °F 48.2 °F 30.2 in WSW 8.7 mph 10.5 mph 98% 0 in
19:11 47.8 °F 48.2 °F 30.2 in SSW 7.4 mph 10.5 mph 98% 0 in
19:14 47.8 °F 48.2 °F 30.2 in SW 6.5 mph 10.5 mph 98% 0 in
19:19 47.8 °F 48.2 °F 30.2 in WSW 7.6 mph 9.8 mph 98% 0 in
19:23 47.8 °F 48.2 °F 30.2 in WSW 6.3 mph 11.2 mph 98% 0 in
19:28 47.8 °F 48.2 °F 30.2 in SW 6.5 mph 11.2 mph 98% 0 in
19:29 47.8 °F 48.2 °F 30.2 in SSW 10.7 mph 11.2 mph 98% 0 in
19:34 48 °F 48.2 °F 30.2 in WSW 7.2 mph 13.2 mph 98% 0 in
19:36 48 °F 48.2 °F 30.2 in WSW 6 mph 13.2 mph 98% 0 in
19:41 48 °F 48.2 °F 30.2 in WSW 8.5 mph 13.2 mph 98% 0 in
19:46 48.2 °F 48.2 °F 30.2 in SW 8.7 mph 13.4 mph 98% 0 in
19:47 48.2 °F 48.2 °F 30.2 in WSW 10.1 mph 13.4 mph 98% 0 in
19:48 48.2 °F 48.2 °F 30.2 in WSW 8.5 mph 13.4 mph 98% 0 in
19:52 48.2 °F 48.2 °F 30.2 in SW 11 mph 13.4 mph 98% 0 in
19:57 48.2 °F 48.2 °F 30.2 in WSW 6.3 mph 11.2 mph 98% 0 in
19:58 48.2 °F 48.2 °F 30.2 in SW 8.1 mph 11.2 mph 98% 0 in
20:03 48.2 °F 48.2 °F 30.2 in WSW 9.8 mph 11.2 mph 98% 0 in
20:04 48.2 °F 48.2 °F 30.2 in SSW 6.5 mph 11.2 mph 98% 0 in
20:05 48.2 °F 48.2 °F 30.2 in SSW 5.8 mph 11.2 mph 98% 0 in
20:10 48 °F 48.2 °F 30.2 in SW 6.3 mph 11 mph 98% 0 in
20:12 48 °F 48.2 °F 30.2 in WSW 6.5 mph 10.1 mph 98% 0 in
20:13 48 °F 48.2 °F 30.2 in SSW 7.2 mph 10.1 mph 98% 0 in
20:18 48 °F 48.2 °F 30.2 in SSW 6.3 mph 9.8 mph 98% 0 in
20:23 48 °F 48.2 °F 30.2 in WSW 7.2 mph 9.8 mph 98% 0 in
20:24 48 °F 48.2 °F 30.2 in SW 5.8 mph 10.3 mph 98% 0 in
20:26 47.8 °F 48.2 °F 30.2 in SW 7.8 mph 10.3 mph 98% 0 in
20:31 47.8 °F 48.2 °F 30.2 in SSW 8.1 mph 10.3 mph 98% 0 in
20:34 47.8 °F 48.2 °F 30.2 in SW 8.1 mph 10.5 mph 98% 0 in
20:39 47.8 °F 48.2 °F 30.2 in SSW 7.4 mph 10.5 mph 98% 0 in
20:43 47.8 °F 48.2 °F 30.2 in SSW 7.8 mph 10.5 mph 98% 0 in
20:47 47.8 °F 48.2 °F 30.2 in WSW 5.4 mph 13.2 mph 98% 0 in
20:50 47.8 °F 48.2 °F 30.2 in SW 7.2 mph 13.2 mph 98% 0 in
20:55 47.8 °F 48.2 °F 30.2 in SSW 7.6 mph 10.5 mph 98% 0 in
20:56 47.8 °F 48.2 °F 30.2 in SW 8.5 mph 10.5 mph 98% 0 in
21:01 47.8 °F 48.2 °F 30.2 in SSW 8.7 mph 11 mph 98% 0 in
21:03 47.8 °F 48.2 °F 30.2 in WSW 7.6 mph 11 mph 98% 0 in
21:08 47.8 °F 48.2 °F 30.2 in WSW 7.8 mph 10.5 mph 98% 0 in
21:10 47.8 °F 48.2 °F 30.2 in SSW 5.8 mph 10.1 mph 98% 0 in
21:15 48 °F 48.2 °F 30.2 in SSW 7.8 mph 13 mph 98% 0 in
21:19 48 °F 48.2 °F 30.2 in SW 8.7 mph 13 mph 98% 0 in
21:24 48 °F 48.2 °F 30.2 in SW 12.5 mph 12.5 mph 98% 0 in
21:27 48.2 °F 48.2 °F 30.2 in SW 7.2 mph 12.5 mph 98% 0 in
21:32 48.2 °F 48.2 °F 30.2 in SSW 8.1 mph 12.5 mph 98% 0 in
21:33 48.2 °F 48.2 °F 30.2 in SW 7.6 mph 12.5 mph 98% 0 in
21:34 48.2 °F 48.2 °F 30.2 in SW 6.3 mph 12.5 mph 98% 0 in
21:39 48.2 °F 48.2 °F 30.2 in SW 8.5 mph 12.3 mph 98% 0 in
21:44 48.4 °F 48.2 °F 30.2 in SSW 7.8 mph 12.3 mph 98% 0 in
21:49 48.4 °F 48.2 °F 30.2 in SSW 7.6 mph 12.3 mph 98% 0 in
21:54 48.2 °F 48.2 °F 30.2 in SW 7.8 mph 10.7 mph 98% 0 in
21:55 48.2 °F 48.2 °F 30.2 in WSW 7.6 mph 10.7 mph 98% 0 in
21:59 48.2 °F 48.2 °F 30.2 in SSW 7.2 mph 9.8 mph 98% 0 in
22:04 48.2 °F 48.2 °F 30.2 in SSW 9.8 mph 13 mph 98% 0 in
22:09 48.2 °F 48.2 °F 30.2 in WSW 8.5 mph 13 mph 98% 0 in
22:14 48.2 °F 48.2 °F 30.2 in SSW 12.8 mph 13 mph 98% 0 in
22:15 48.2 °F 48.2 °F 30.2 in SW 8.1 mph 13 mph 98% 0 in
22:17 48.2 °F 48.2 °F 30.2 in SSW 7.8 mph 13 mph 98% 0 in
22:21 48.2 °F 48.2 °F 30.2 in WSW 7.2 mph 12.8 mph 98% 0 in
22:27 48.2 °F 48.2 °F 30.2 in SW 8.1 mph 12.8 mph 98% 0 in
22:31 48.2 °F 48.2 °F 30.2 in WSW 8.1 mph 12.8 mph 98% 0 in
22:36 48.4 °F 48.2 °F 30.2 in SSW 8.5 mph 12.8 mph 98% 0 in
22:41 48.4 °F 48.2 °F 30.2 in SW 8.5 mph 12.8 mph 98% 0 in
22:44 48.4 °F 48.2 °F 30.2 in SSW 9.8 mph 12.8 mph 98% 0 in
22:48 48.4 °F 48.2 °F 30.2 in SW 7.6 mph 10.5 mph 98% 0 in
22:53 48.4 °F 48.2 °F 30.2 in SSW 6.5 mph 12.3 mph 98% 0 in
22:56 48.4 °F 48.2 °F 30.2 in SW 5.8 mph 12.3 mph 98% 0 in
22:59 48.4 °F 48.2 °F 30.2 in SW 7.6 mph 12.3 mph 98% 0 in
23:04 48.4 °F 48.2 °F 30.2 in SW 10.5 mph 11 mph 98% 0 in
23:06 48.4 °F 48.2 °F 30.2 in SW 11 mph 11 mph 98% 0 in
23:11 48.4 °F 48.2 °F 30.2 in SSW 7.8 mph 11 mph 98% 0 in
23:16 48.4 °F 48.2 °F 30.2 in WSW 7.4 mph 11 mph 98% 0 in
23:17 48.4 °F 48.2 °F 30.2 in SW 6.5 mph 11 mph 98% 0 in
23:19 48.4 °F 48.2 °F 30.2 in WSW 6.5 mph 11 mph 98% 0 in
23:24 48.4 °F 48.2 °F 30.2 in SW 11 mph 11 mph 98% 0 in
23:29 48.4 °F 48.2 °F 30.2 in WSW 9.6 mph 12.5 mph 98% 0 in
23:32 48.4 °F 48.2 °F 30.2 in WSW 7.8 mph 12.5 mph 98% 0 in
23:37 48.6 °F 48.2 °F 30.2 in WSW 8.1 mph 12.5 mph 98% 0 in
23:39 48.6 °F 48.2 °F 30.2 in SW 7.2 mph 10.3 mph 98% 0 in
23:40 48.6 °F 48.2 °F 30.2 in SW 11 mph 13 mph 98% 0 in
23:45 48.6 °F 48.2 °F 30.1 in SW 7.4 mph 13.4 mph 98% 0 in
23:46 48.6 °F 48.2 °F 30.1 in SW 10.1 mph 13.4 mph 98% 0 in
23:51 48.6 °F 48.2 °F 30.1 in WSW 9.8 mph 13.4 mph 98% 0 in
23:52 48.6 °F 48.2 °F 30.1 in WSW 9.4 mph 13.4 mph 98% 0 in
23:57 48.6 °F 48.2 °F 30.1 in SW 8.5 mph 10.5 mph 98% 0 in
23:59 48.6 °F 48.2 °F 30.1 in SW 8.9 mph 10.5 mph 98% 0 in
Données Historique de Météo Turbie

Mise a jour : 25/05/2018 07:16:14
Généré par Cumulus 1.9.4 (1099)